Darstellungsparameter: Aktuell verwendete Einstellungen:
Skalierung der Graphiken ... ?
xyx+y,   Skalierungsfaktor:      Skalierung: Modus: x, Faktor: 1
Darstellungszeitraum ... ?
Vom - - bis: - -   Zeitraum: 05.09.2016 - 05.09.2016
Min/Max/Avg-Anzeige ... ?
Zeige MMA aktuell
Zeige MMA Monat
Zeige MMA alles
Zeige --A aktuell
Zeige --A Monat
Zeige --A alles
Keine MMA-Anzeige
MMA:
Keine MMA-Graphiken
MMA-Basis: 05.09.2016 - 05.09.2016
Quicknavigation für Darstellung... ?
Tage:      1T, 2T, 3T, 5T -1T -2T -3T -5T +1T +2T +3T +5T
Wochen: 1W, 2W, 3W -1W -2W -3W +1W +2W +3W
Monate: 1M, 3M, 6M -1M -3M -6M +1M +3M +6M
Jahre:    1J, 3J, 5J, 10J -1J -3J -5J -10J +1J +3J +5J +10J
Nutze für die Darstellung ... ?
Originaldaten oder Mittelwerte auf ...
Stundenbasis Tagesbasis Wochenbasis
Monatsbasis Jahresbasis      Datenbasis: Original-Daten
Darstellen als:
Statistik (Auto) Statistik J:M      Darstellung:
Zur Graphik,    zurück zur Übersicht aller Sensoren.
 
Tabellarische Datenbersicht: ?
 
Sensor: Nr:Datum:Temp:Feuchte:Taupunkt:
Aussen-T/F 1 05-09-2016 00:00:00 16.2 C 86 % 13.86 C
2 05-09-2016 00:05:00 16.2 C 86 % 13.86 C
3 05-09-2016 00:10:00 16.2 C 85 % 13.68 C
4 05-09-2016 00:15:00 16.2 C 85 % 13.68 C
5 05-09-2016 00:20:00 16.3 C 85 % 13.77 C
6 05-09-2016 00:25:00 16.3 C 85 % 13.77 C
7 05-09-2016 00:30:00 16.3 C 84 % 13.59 C
8 05-09-2016 00:35:00 16.3 C 85 % 13.77 C
9 05-09-2016 00:40:00 16.2 C 85 % 13.68 C
10 05-09-2016 00:45:00 16.2 C 85 % 13.68 C
11 05-09-2016 00:50:00 16.2 C 85 % 13.68 C
12 05-09-2016 00:55:00 16.3 C 85 % 13.77 C
13 05-09-2016 01:00:00 16.3 C 84 % 13.59 C
14 05-09-2016 01:05:00 16.3 C 84 % 13.59 C
15 05-09-2016 01:10:00 16.3 C 84 % 13.59 C
16 05-09-2016 01:15:00 16.3 C 85 % 13.77 C
17 05-09-2016 01:20:00 16.2 C 84 % 13.5 C
18 05-09-2016 01:25:00 16.1 C 85 % 13.58 C
19 05-09-2016 01:30:00 16 C 85 % 13.48 C
20 05-09-2016 01:35:00 15.9 C 85 % 13.38 C
21 05-09-2016 01:40:00 15.8 C 85 % 13.28 C
22 05-09-2016 01:45:00 15.8 C 85 % 13.28 C
23 05-09-2016 01:50:00 15.8 C 86 % 13.46 C
24 05-09-2016 01:55:00 15.7 C 86 % 13.37 C
25 05-09-2016 02:00:00 15.7 C 86 % 13.37 C
Sensor: Nr:Datum:Temp:Feuchte:Taupunkt:
Aussen-T/F 26 05-09-2016 02:05:00 15.6 C 86 % 13.27 C
27 05-09-2016 02:10:00 15.4 C 87 % 13.25 C
28 05-09-2016 02:15:00 15.4 C 87 % 13.25 C
29 05-09-2016 02:20:00 15.3 C 87 % 13.15 C
30 05-09-2016 02:25:00 15.2 C 88 % 13.23 C
31 05-09-2016 02:30:00 15.2 C 88 % 13.23 C
32 05-09-2016 02:35:00 15.2 C 88 % 13.23 C
33 05-09-2016 02:40:00 15.3 C 89 % 13.5 C
34 05-09-2016 02:45:00 15.4 C 88 % 13.42 C
35 05-09-2016 02:50:00 15.4 C 88 % 13.42 C
36 05-09-2016 02:55:00 15.6 C 87 % 13.45 C
37 05-09-2016 03:00:00 15.7 C 87 % 13.54 C
38 05-09-2016 03:05:00 15.7 C 87 % 13.54 C
39 05-09-2016 03:10:00 15.8 C 87 % 13.64 C
40 05-09-2016 03:15:00 15.8 C 86 % 13.46 C
41 05-09-2016 03:20:00 15.9 C 85 % 13.38 C
42 05-09-2016 03:25:00 15.9 C 85 % 13.38 C
43 05-09-2016 03:30:00 16 C 85 % 13.48 C
44 05-09-2016 03:35:00 16 C 85 % 13.48 C
45 05-09-2016 03:40:00 16 C 85 % 13.48 C
46 05-09-2016 03:45:00 16 C 85 % 13.48 C
47 05-09-2016 03:50:00 15.9 C 85 % 13.38 C
48 05-09-2016 03:55:00 16 C 85 % 13.48 C
49 05-09-2016 04:00:00 15.9 C 85 % 13.38 C
50 05-09-2016 04:05:00 15.9 C 85 % 13.38 C
Sensor: Nr:Datum:Temp:Feuchte:Taupunkt:
Aussen-T/F 51 05-09-2016 04:10:00 15.8 C 85 % 13.28 C
52 05-09-2016 04:15:00 15.7 C 85 % 13.19 C
53 05-09-2016 04:20:00 15.6 C 85 % 13.09 C
54 05-09-2016 04:25:00 15.5 C 86 % 13.17 C
55 05-09-2016 04:30:00 15.4 C 86 % 13.07 C
56 05-09-2016 04:35:00 15.3 C 86 % 12.97 C
57 05-09-2016 04:40:00 15.2 C 87 % 13.05 C
58 05-09-2016 04:45:00 15.1 C 87 % 12.95 C
59 05-09-2016 04:50:00 15.1 C 88 % 13.13 C
60 05-09-2016 04:55:00 15 C 88 % 13.03 C
61 05-09-2016 05:00:00 15 C 88 % 13.03 C
62 05-09-2016 05:05:00 15 C 89 % 13.2 C
63 05-09-2016 05:10:00 15 C 89 % 13.2 C
64 05-09-2016 05:15:00 15 C 89 % 13.2 C
65 05-09-2016 05:20:00 15 C 89 % 13.2 C
66 05-09-2016 05:25:00 15 C 89 % 13.2 C
67 05-09-2016 05:30:00 15 C 89 % 13.2 C
68 05-09-2016 05:35:00 15.1 C 89 % 13.3 C
69 05-09-2016 05:40:00 15.1 C 89 % 13.3 C
70 05-09-2016 05:45:00 15.1 C 89 % 13.3 C
71 05-09-2016 05:50:00 15.1 C 89 % 13.3 C
72 05-09-2016 05:55:00 15.1 C 89 % 13.3 C
73 05-09-2016 06:00:00 15.2 C 89 % 13.4 C
74 05-09-2016 06:05:00 15.2 C 89 % 13.4 C
75 05-09-2016 06:10:00 15.2 C 89 % 13.4 C
Sensor: Nr:Datum:Temp:Feuchte:Taupunkt:
Aussen-T/F 76 05-09-2016 06:15:00 15.3 C 88 % 13.33 C
77 05-09-2016 06:20:00 15.3 C 88 % 13.33 C
78 05-09-2016 06:25:00 15.3 C 88 % 13.33 C
79 05-09-2016 06:30:00 15.3 C 88 % 13.33 C
80 05-09-2016 06:35:00 15.3 C 88 % 13.33 C
81 05-09-2016 06:40:00 15.3 C 88 % 13.33 C
82 05-09-2016 06:45:00 15.4 C 88 % 13.42 C
83 05-09-2016 06:50:00 15.4 C 88 % 13.42 C
84 05-09-2016 06:55:00 15.4 C 88 % 13.42 C
85 05-09-2016 07:00:00 15.5 C 88 % 13.52 C
86 05-09-2016 07:05:00 15.5 C 88 % 13.52 C
87 05-09-2016 07:10:00 15.6 C 87 % 13.45 C
88 05-09-2016 07:15:00 15.6 C 87 % 13.45 C
89 05-09-2016 07:20:00 15.7 C 87 % 13.54 C
90 05-09-2016 07:25:00 15.7 C 88 % 13.72 C
91 05-09-2016 07:30:00 15.7 C 88 % 13.72 C
92 05-09-2016 07:35:00 15.7 C 88 % 13.72 C
93 05-09-2016 07:40:00 15.7 C 88 % 13.72 C
94 05-09-2016 07:45:00 15.7 C 88 % 13.72 C
95 05-09-2016 07:50:00 15.7 C 88 % 13.72 C
96 05-09-2016 07:55:00 15.7 C 88 % 13.72 C
97 05-09-2016 08:00:00 15.7 C 88 % 13.72 C
98 05-09-2016 08:05:00 15.7 C 88 % 13.72 C
99 05-09-2016 08:10:00 15.7 C 88 % 13.72 C
100 05-09-2016 08:15:00 15.8 C 88 % 13.82 C
Sensor: Nr:Datum:Temp:Feuchte:Taupunkt:
Aussen-T/F 101 05-09-2016 08:20:00 15.8 C 88 % 13.82 C
102 05-09-2016 08:25:00 15.9 C 88 % 13.92 C
103 05-09-2016 08:30:00 16 C 88 % 14.01 C
104 05-09-2016 08:35:00 16.1 C 88 % 14.11 C
105 05-09-2016 08:40:00 16.2 C 87 % 14.03 C
106 05-09-2016 08:45:00 16.3 C 87 % 14.13 C
107 05-09-2016 08:50:00 16.4 C 87 % 14.23 C
108 05-09-2016 08:55:00 16.4 C 87 % 14.23 C
109 05-09-2016 09:00:00 16.5 C 87 % 14.33 C
110 05-09-2016 09:05:00 16.5 C 87 % 14.33 C
111 05-09-2016 09:10:00 16.5 C 87 % 14.33 C
112 05-09-2016 09:15:00 16.6 C 87 % 14.43 C
113 05-09-2016 09:20:00 16.6 C 87 % 14.43 C
114 05-09-2016 09:25:00 16.6 C 86 % 14.25 C
115 05-09-2016 09:30:00 16.6 C 87 % 14.43 C
116 05-09-2016 09:35:00 16.6 C 88 % 14.6 C
117 05-09-2016 09:40:00 16.7 C 89 % 14.88 C
118 05-09-2016 09:45:00 16.6 C 89 % 14.78 C
119 05-09-2016 09:50:00 16.6 C 89 % 14.78 C
120 05-09-2016 09:55:00 16.6 C 90 % 14.95 C
121 05-09-2016 10:00:00 16.6 C 90 % 14.95 C
122 05-09-2016 10:05:00 16.5 C 90 % 14.85 C
123 05-09-2016 10:10:00 16.5 C 90 % 14.85 C
124 05-09-2016 10:15:00 16.4 C 90 % 14.76 C
125 05-09-2016 10:20:00 16.5 C 90 % 14.85 C
Sensor: Nr:Datum:Temp:Feuchte:Taupunkt:
Aussen-T/F 126 05-09-2016 10:25:00 16.6 C 90 % 14.95 C
127 05-09-2016 10:30:00 16.7 C 88 % 14.7 C
128 05-09-2016 10:35:00 16.8 C 89 % 14.98 C
129 05-09-2016 10:40:00 17.1 C 88 % 15.1 C
130 05-09-2016 10:45:00 17.3 C 87 % 15.12 C
131 05-09-2016 10:50:00 17.6 C 85 % 15.05 C
132 05-09-2016 10:55:00 17.8 C 83 % 14.88 C
133 05-09-2016 11:00:00 17.9 C 84 % 15.16 C
134 05-09-2016 11:05:00 18.1 C 83 % 15.17 C
135 05-09-2016 11:10:00 18.2 C 83 % 15.27 C
136 05-09-2016 11:15:00 18.3 C 82 % 15.17 C
137 05-09-2016 11:20:00 18.4 C 82 % 15.27 C
138 05-09-2016 11:25:00 18.4 C 81 % 15.08 C
139 05-09-2016 11:30:00 18.4 C 80 % 14.89 C
140 05-09-2016 11:35:00 18.3 C 80 % 14.79 C
141 05-09-2016 11:40:00 18.4 C 81 % 15.08 C
142 05-09-2016 11:45:00 18.6 C 81 % 15.28 C
143 05-09-2016 11:50:00 18.7 C 79 % 14.99 C
144 05-09-2016 11:55:00 18.7 C 77 % 14.59 C
145 05-09-2016 12:00:00 18.7 C 77 % 14.59 C
146 05-09-2016 12:05:00 18.8 C 79 % 15.08 C
147 05-09-2016 12:10:00 18.9 C 78 % 14.98 C
148 05-09-2016 12:15:00 19.1 C 77 % 14.97 C
149 05-09-2016 12:20:00 19.2 C 74 % 14.46 C
150 05-09-2016 12:25:00 19.3 C 74 % 14.55 C
Sensor: Nr:Datum:Temp:Feuchte:Taupunkt:
Aussen-T/F 151 05-09-2016 12:30:00 19.3 C 75 % 14.76 C
152 05-09-2016 12:35:00 19.4 C 74 % 14.65 C
153 05-09-2016 12:40:00 19.5 C 72 % 14.32 C
154 05-09-2016 12:45:00 19.7 C 71 % 14.3 C
155 05-09-2016 12:50:00 19.9 C 71 % 14.49 C
156 05-09-2016 12:55:00 19.9 C 70 % 14.27 C
157 05-09-2016 13:00:00 20 C 69 % 14.14 C
158 05-09-2016 13:05:00 20 C 68 % 13.92 C
159 05-09-2016 13:10:00 20.1 C 69 % 14.24 C
160 05-09-2016 13:15:00 20.1 C 68 % 14.01 C
161 05-09-2016 13:20:00 20.1 C 68 % 14.01 C
162 05-09-2016 13:25:00 20.1 C 68 % 14.01 C
163 05-09-2016 13:30:00 20.1 C 69 % 14.24 C
164 05-09-2016 13:35:00 20.1 C 68 % 14.01 C
165 05-09-2016 13:40:00 20.1 C 68 % 14.01 C
166 05-09-2016 13:45:00 20.2 C 67 % 13.88 C
167 05-09-2016 13:50:00 20.3 C 67 % 13.97 C
168 05-09-2016 13:55:00 20.4 C 67 % 14.07 C
169 05-09-2016 14:00:00 20.6 C 67 % 14.26 C
170 05-09-2016 14:05:00 20.6 C 68 % 14.49 C
171 05-09-2016 14:10:00 20.7 C 67 % 14.36 C
172 05-09-2016 14:15:00 20.8 C 66 % 14.22 C
173 05-09-2016 14:20:00 20.7 C 64 % 13.65 C
174 05-09-2016 14:25:00 20.6 C 66 % 14.03 C
175 05-09-2016 14:30:00 20.4 C 65 % 13.6 C
Sensor: Nr:Datum:Temp:Feuchte:Taupunkt:
Aussen-T/F 176 05-09-2016 14:35:00 20.5 C 65 % 13.7 C
177 05-09-2016 14:40:00 20.6 C 67 % 14.26 C
178 05-09-2016 14:45:00 20.8 C 66 % 14.22 C
179 05-09-2016 14:50:00 20.9 C 65 % 14.08 C
180 05-09-2016 14:55:00 20.9 C 64 % 13.84 C
181 05-09-2016 15:00:00 20.9 C 65 % 14.08 C
182 05-09-2016 15:05:00 20.9 C 66 % 14.31 C
183 05-09-2016 15:10:00 20.9 C 65 % 14.08 C
184 05-09-2016 15:15:00 20.9 C 64 % 13.84 C
185 05-09-2016 15:20:00 20.9 C 65 % 14.08 C
186 05-09-2016 15:25:00 20.9 C 66 % 14.31 C
187 05-09-2016 15:30:00 21 C 66 % 14.41 C
188 05-09-2016 15:35:00 21.1 C 65 % 14.27 C
189 05-09-2016 15:40:00 21.3 C 64 % 14.22 C
190 05-09-2016 15:45:00 21.4 C 64 % 14.31 C
191 05-09-2016 15:50:00 21.4 C 62 % 13.82 C
192 05-09-2016 15:55:00 21.4 C 61 % 13.57 C
193 05-09-2016 16:00:00 21.4 C 63 % 14.07 C
194 05-09-2016 16:05:00 21.6 C 64 % 14.5 C
195 05-09-2016 16:10:00 21.7 C 63 % 14.35 C
196 05-09-2016 16:15:00 21.8 C 63 % 14.45 C
197 05-09-2016 16:20:00 21.8 C 63 % 14.45 C
198 05-09-2016 16:25:00 22.1 C 62 % 14.48 C
199 05-09-2016 16:30:00 22.2 C 61 % 14.32 C
200 05-09-2016 16:35:00 22.3 C 60 % 14.16 C
Sensor: Nr:Datum:Temp:Feuchte:Taupunkt:
Aussen-T/F 201 05-09-2016 16:40:00 22.5 C 60 % 14.35 C
202 05-09-2016 16:45:00 22.7 C 59 % 14.28 C
203 05-09-2016 16:50:00 22.3 C 60 % 14.16 C
204 05-09-2016 16:55:00 22.1 C 61 % 14.23 C
205 05-09-2016 17:00:00 21.8 C 61 % 13.95 C
206 05-09-2016 17:05:00 21.8 C 58 % 13.17 C
207 05-09-2016 17:10:00 21.9 C 59 % 13.53 C
208 05-09-2016 17:15:00 22.2 C 57 % 13.28 C
209 05-09-2016 17:20:00 22.5 C 58 % 13.83 C
210 05-09-2016 17:25:00 22.6 C 56 % 13.38 C
211 05-09-2016 17:30:00 22.8 C 57 % 13.84 C
212 05-09-2016 17:35:00 23.1 C 57 % 14.12 C
213 05-09-2016 17:40:00 23.2 C 57 % 14.21 C
214 05-09-2016 17:45:00 23.3 C 57 % 14.31 C
215 05-09-2016 17:50:00 23.5 C 57 % 14.49 C
216 05-09-2016 17:55:00 23.5 C 56 % 14.22 C
217 05-09-2016 18:00:00 23.2 C 56 % 13.94 C
218 05-09-2016 18:05:00 22.9 C 57 % 13.93 C
219 05-09-2016 18:10:00 22.9 C 57 % 13.93 C
220 05-09-2016 18:15:00 23 C 57 % 14.03 C
221 05-09-2016 18:20:00 23.2 C 57 % 14.21 C
222 05-09-2016 18:25:00 23.2 C 56 % 13.94 C
223 05-09-2016 18:30:00 23.1 C 59 % 14.65 C
224 05-09-2016 18:35:00 23.1 C 57 % 14.12 C
225 05-09-2016 18:40:00 22.9 C 62 % 15.23 C
Sensor: Nr:Datum:Temp:Feuchte:Taupunkt:
Aussen-T/F 226 05-09-2016 18:45:00 22.8 C 64 % 15.64 C
227 05-09-2016 18:50:00 22.6 C 65 % 15.69 C
228 05-09-2016 18:55:00 22.3 C 66 % 15.64 C
229 05-09-2016 19:00:00 21.9 C 67 % 15.5 C
230 05-09-2016 19:05:00 21.6 C 68 % 15.44 C
231 05-09-2016 19:10:00 21.2 C 70 % 15.51 C
232 05-09-2016 19:15:00 20.8 C 72 % 15.57 C
233 05-09-2016 19:20:00 20.6 C 72 % 15.38 C
234 05-09-2016 19:25:00 20.3 C 73 % 15.3 C
235 05-09-2016 19:30:00 20.1 C 75 % 15.53 C
236 05-09-2016 19:35:00 19.9 C 75 % 15.34 C
237 05-09-2016 19:40:00 19.8 C 75 % 15.24 C
238 05-09-2016 19:45:00 19.6 C 75 % 15.05 C
239 05-09-2016 19:50:00 19.4 C 76 % 15.06 C
240 05-09-2016 19:55:00 19.3 C 76 % 14.97 C
241 05-09-2016 20:00:00 19.1 C 76 % 14.77 C
242 05-09-2016 20:05:00 18.8 C 77 % 14.68 C
243 05-09-2016 20:10:00 18.6 C 77 % 14.49 C
244 05-09-2016 20:15:00 18.4 C 77 % 14.3 C
245 05-09-2016 20:20:00 18.3 C 77 % 14.2 C
246 05-09-2016 20:25:00 18.2 C 78 % 14.3 C
247 05-09-2016 20:30:00 18 C 78 % 14.11 C
248 05-09-2016 20:35:00 17.9 C 78 % 14.01 C
249 05-09-2016 20:40:00 17.7 C 79 % 14.01 C
250 05-09-2016 20:45:00 17.6 C 80 % 14.11 C
Sensor: Nr:Datum:Temp:Feuchte:Taupunkt:
Aussen-T/F 251 05-09-2016 20:50:00 17.4 C 80 % 13.92 C
252 05-09-2016 20:55:00 17.2 C 81 % 13.91 C
253 05-09-2016 21:00:00 17.1 C 82 % 14 C
254 05-09-2016 21:05:00 16.9 C 82 % 13.81 C
255 05-09-2016 21:10:00 16.7 C 83 % 13.8 C
256 05-09-2016 21:15:00 16.6 C 83 % 13.7 C
257 05-09-2016 21:20:00 16.5 C 84 % 13.79 C
258 05-09-2016 21:25:00 16.4 C 85 % 13.87 C
259 05-09-2016 21:30:00 16.3 C 85 % 13.77 C
260 05-09-2016 21:35:00 16.3 C 85 % 13.77 C
261 05-09-2016 21:40:00 16.2 C 85 % 13.68 C
262 05-09-2016 21:45:00 16.1 C 85 % 13.58 C
263 05-09-2016 21:50:00 15.9 C 86 % 13.56 C
264 05-09-2016 21:55:00 15.8 C 87 % 13.64 C
265 05-09-2016 22:00:00 15.6 C 86 % 13.27 C
266 05-09-2016 22:05:00 15.4 C 87 % 13.25 C
267 05-09-2016 22:10:00 15.3 C 87 % 13.15 C
268 05-09-2016 22:15:00 15.3 C 88 % 13.33 C
269 05-09-2016 22:20:00 15.2 C 88 % 13.23 C
270 05-09-2016 22:25:00 15.1 C 88 % 13.13 C
271 05-09-2016 22:30:00 15 C 88 % 13.03 C
272 05-09-2016 22:35:00 14.9 C 88 % 12.93 C
273 05-09-2016 22:40:00 14.8 C 88 % 12.83 C
274 05-09-2016 22:45:00 14.7 C 88 % 12.73 C
275 05-09-2016 22:50:00 14.6 C 89 % 12.81 C
Sensor: Nr:Datum:Temp:Feuchte:Taupunkt:
Aussen-T/F 276 05-09-2016 22:55:00 14.6 C 89 % 12.81 C
277 05-09-2016 23:00:00 14.5 C 89 % 12.71 C
278 05-09-2016 23:05:00 14.4 C 89 % 12.61 C
279 05-09-2016 23:10:00 14.3 C 89 % 12.51 C
280 05-09-2016 23:15:00 14.2 C 90 % 12.58 C
281 05-09-2016 23:20:00 14.2 C 90 % 12.58 C
282 05-09-2016 23:25:00 14.1 C 90 % 12.49 C
283 05-09-2016 23:30:00 14.1 C 91 % 12.65 C
284 05-09-2016 23:35:00 14 C 91 % 12.56 C
285 05-09-2016 23:40:00 13.9 C 91 % 12.46 C
286 05-09-2016 23:45:00 13.8 C 91 % 12.36 C
287 05-09-2016 23:50:00 13.8 C 91 % 12.36 C
288 05-09-2016 23:55:00 13.7 C 91 % 12.26 C

Legende:
   Min
   Max


Maximal/Minimal-Werte vom 05.09.2016 - 05.09.2016

Sensor Min Max Avg
Temp
(Aussen-T/F)
13.7 °C
05-09-2016  23:55:00
23.5 °C
05-09-2016  17:50:00
17.74 °C
Feuchte
(Aussen-T/F)
56 %
05-09-2016  17:25:00
91 %
05-09-2016  23:30:00
79.3 %
Taupunkt
(Aussen-T/F)
12.26 C
05-09-2016  23:55:00
15.69 C
05-09-2016  18:50:00
13.88 C

Die Daten stammen von einer Davis Vantage Pro 2 Wetter-Station und werden unter Linux mit der Software wview2wettercgi und aufbereitet. Alle Angaben erfolgen ohne Gewähr für ihre Vollständigkeit oder Richtigkeit.
Kontakt: Rainer Krienke krienke@uni-koblenz.de . Meine Webseiten an der Uni Koblenz oder privat.
Version: $Revision: 0.78 $